CAPE
677 911 938 1183 1313 1293 1132 926 610 545 557 827 785 793 1085 1063 1247 1196 1548 1357 1317 1401 1306 1664 1429 947 597 541 631 283 223 364 256 194 256 221 219 3 124 78 756 702 1302 1596 1870 1765 1702 1473 1527 2178 2164 2249 1987 2960 2556 2943 2720 2808 2332 2692 2648 3303 2653
870 811 758 1148 1312 1266 1109 896 683 616 558 756 885 846 1120 1127 1272 1320 1484 1633 1384 1495 1386 1527 1685 1174 733 581 672 487 224 231 333 302 105 160 527 81 154 107 229 1033 1146 1529 1230 1660 1579 1628 1417 1851 2104 2346 2089 2262 3081 2616 2663 2737 2745 2696 2375 2470 3054
777 650 764 1052 1305 1236 1172 967 787 669 548 863 1035 965 1118 1170 1223 1388 1540 1776 1605 1588 1515 1320 1773 1402 942 705 718 675 338 170 251 241 59 104 224 500 498 289 188 688 1079 1541 1478 1220 1531 1186 1790 1609 2108 2253 2182 2225 2810 2809 2665 2698 2678 2843 2787 2582 2684
992 982 1024 1253 1285 1206 1160 1109 857 753 915 971 1150 1080 1108 1161 1131 1362 1636 1894 1802 1828 1729 1369 1638 1599 1172 865 821 780 559 218 164 184 77 44 45 590 875 720 550 610 974 1204 1535 1332 1208 1339 942 2108 2762 2130 2210 2307 2637 2955 2728 2795 2846 2949 2600 3029 2716
1084 1236 1230 1258 1293 1180 1060 1001 974 807 916 1120 1230 1192 1090 1177 1129 1148 1669 1897 1974 1972 1959 1680 1599 1752 1451 1039 922 893 726 366 162 118 97 18 49 28 962 1080 871 879 913 971 1205 1394 1143 1312 1082 1427 2428 2051 2143 2460 2580 2810 2824 2792 2814 3110 2688 2677 2932
1090 1201 1178 1195 1312 1263 1034 904 875 916 979 894 1026 1259 1032 1029 1016 1241 1599 1976 2041 2088 2146 2058 1840 1934 1757 1297 967 936 808 502 250 145 80 26 50 2 112 1069 1136 1014 998 909 706 1242 1166 1114 1382 967 2187 2002 2092 2341 2506 2577 2745 2962 2725 2897 2760 2587 2930
1057 1124 1186 1232 1200 1266 1239 1108 1111 1138 1096 1011 933 1265 1310 1296 1384 1395 1581 1934 2112 2171 2243 2261 2134 2083 2070 1730 1185 960 845 608 376 184 71 29 33 23 0 99 933 1065 937 931 557 211 931 1137 1336 1130 1212 2031 2035 2408 2372 2330 2536 2834 2781 2719 2705 2511 2690
941 992 1154 1165 1288 1381 1279 1189 1056 1068 1073 1071 1257 1271 1352 1350 1428 1436 1588 1976 2203 2270 2305 2293 2255 2209 2273 2191 1715 1160 954 715 498 312 137 37 28 82 0 0 93 696 774 796 783 307 111 664 1358 1419 1176 1440 1814 2260 2322 2206 2156 2680 2737 2739 2658 2552 2641
908 966 919 1114 1395 1442 1422 1324 1249 1118 1036 1038 1160 1281 1331 1351 1377 1430 1596 1956 2211 2314 2376 2356 2326 2269 2346 2412 2242 1723 1326 1008 703 488 273 96 41 91 45 6 19 151 380 368 681 666 280 90 1000 1607 1455 1367 1475 1580 1974 2129 2128 2281 2608 2655 2621 2552 2607
927 868 884 1094 1192 1350 1274 1274 1295 1238 1104 1067 1216 1462 1348 1346 1340 1343 1383 1770 2190 2336 2401 2393 2380 2371 2472 2537 2473 2201 1758 1474 1098 764 490 262 130 132 116 45 27 120 251 277 306 733 686 226 165 1281 1651 1570 1556 1473 1498 1699 2031 2075 2177 2502 2542 2542 2560
855 757 814 878 1049 1138 1181 1196 1211 1242 1328 1243 1490 1816 1725 1662 1610 1616 1612 1683 2176 2407 2520 2537 2529 2460 2510 2615 2637 2419 2059 1828 1472 1109 838 534 321 283 269 175 104 130 222 308 301 419 766 687 230 295 1510 1715 1817 1766 1608 1775 1926 2052 2008 2245 2448 2523 2525
727 722 622 787 887 1090 1169 1265 1337 1413 1423 1346 1499 1744 1727 1726 1704 1642 1615 1686 2020 2337 2549 2602 2565 2578 2520 2530 2653 2600 2354 2097 1742 1383 1088 896 635 465 436 412 346 278 287 356 392 383 547 809 652 310 770 1611 1838 2096 1913 1798 1988 2020 1983 2040 2381 2476 2498
543 539 693 800 1001 1144 1237 1364 1578 1596 1502 1393 1476 1529 1664 1666 1639 1638 1582 1550 1737 1984 2247 2506 2655 2735 2677 2596 2660 2694 2573 2307 1926 1600 1289 1077 913 727 600 508 527 512 434 426 454 426 496 668 890 708 465 926 1591 2055 2233 1966 1879 2005 1951 1950 2197 2448 2481
978 439 973 1001 1007 1025 1145 1396 1565 1594 1561 1445 1451 1454 1494 1504 1570 1580 1549 1554 1635 1859 2048 2194 2413 2604 2780 2742 2731 2721 2638 2465 2174 1778 1479 1186 1052 963 835 649 564 620 575 506 440 435 442 633 805 1025 844 779 1032 1548 2123 2206 1913 1878 1914 1817 1906 2319 2452
768 770 998 1096 998 955 1191 1307 1359 1479 1589 1606 1528 1511 1445 1402 1411 1436 1491 1539 1579 1717 1920 2162 2384 2589 2719 2894 2898 2753 2591 2385 2249 2026 1756 1389 1268 1265 1203 911 704 700 692 627 485 464 434 536 739 1010 1295 1213 1136 1240 1599 2122 2111 1922 1905 1825 1745 1890 2323
871 880 994 1033 948 935 1042 1282 1544 1547 1691 1675 1638 1585 1528 1483 1485 1499 1506 1511 1584 1670 1956 2266 2453 2640 2792 2875 3007 2933 2678 2450 2245 2131 2007 1767 1532 1426 1332 1188 923 802 867 799 601 485 525 447 728 868 1262 1629 1624 1482 1548 1772 2100 2241 2096 1943 1888 1847 1986
534 961 982 982 988 942 1023 1234 1562 1991 2060 1721 1695 1720 1639 1521 1489 1601 1668 1740 1734 1743 1851 1999 2299 2576 2771 2860 2960 2962 2785 2516 2280 2152 2017 1948 1769 1525 1366 1234 1011 838 880 1036 917 738 750 658 532 881 1013 1495 1992 1946 1826 1830 1935 2116 2237 2192 2066 2054 2054
412 512 555 524 616 758 812 937 1090 1349 2158 2241 2385 2578 2272 2165 1701 1596 1670 1828 1943 1887 1819 1921 2104 2302 2519 2796 2960 2978 2881 2709 2488 2183 2006 1865 1827 1642 1399 1183 995 824 784 1075 1188 1035 985 935 665 897 1094 1238 1798 2188 2167 2053 2017 2110 2220 2334 2301 2224 2225
367 447 529 470 831 761 1005 1060 1210 1053 1207 2000 2223 2206 1887 2044 2170 1868 1862 1866 1926 1967 1899 1896 1973 2185 2396 2501 2603 2934 2996 2883 2667 2321 1945 1798 1828 1654 1396 1208 1075 898 814 990 1304 1283 1175 1129 884 799 1321 1380 1594 2127 2352 2305 2158 2194 2253 2326 2442 2430 2252
211 91 263 333 288 480 411 894 992 1200 891 1113 1286 1790 1732 1798 2011 2005 1900 2140 1938 2025 2044 2015 1989 2098 2114 2238 2353 2547 2876 2911 2732 2468 2013 2019 1966 1795 1526 1370 1279 1117 969 1016 1333 1434 1360 1296 1160 955 1283 1659 1671 1962 2349 2441 2370 2272 2303 2350 2449 2535 2462
274 210 131 198 195 90 0 43 304 690 1046 1321 1234 1196 1302 1546 1608 1959 1986 2030 2164 1937 1859 1844 1981 1944 1950 1886 1906 2280 2604 2771 2707 2466 2118 2194 2192 2064 1792 1559 1463 1350 1185 1135 1298 1550 1532 1488 1442 1319 1199 1637 1831 1891 2193 2445 2499 2406 2289 2304 2365 2484 2572
183 196 168 23 123 113 146 0 76 254 626 1008 1102 1373 1389 1196 1047 1204 1651 1950 2132 2271 2110 1969 1789 1627 1682 1882 1919 1902 2366 2719 2581 2424 2355 2309 2306 2298 2106 1802 1604 1542 1441 1318 1269 1528 1639 1626 1600 1562 1436 1451 1915 1956 2029 2281 2509 2476 2365 2306 2336 2395 2465
156 92 84 110 17 38 184 248 35 234 36 814 1304 1536 1451 1521 1527 1244 980 1104 1646 1803 2031 1928 1904 1783 1636 1591 1572 1569 2393 2731 2512 2424 2503 2442 2395 2416 2353 2097 1808 1651 1621 1540 1360 1377 1674 1739 1700 1648 1570 1437 1591 2080 2058 2150 2452 2562 2520 2477 2467 2501 2517
34 104 0 117 106 122 70 0 0 0 0 436 920 1535 1912 1935 1976 1600 1181 1465 1298 1224 1542 1675 1928 2008 1977 1814 1464 1362 2365 2849 2599 2552 2554 2540 2469 2479 2489 2351 2056 1786 1733 1683 1536 1379 1521 1756 1721 1665 1614 1522 1440 1558 2100 2181 2243 2518 2584 2526 2425 2404 2457
13 0 0 0 0 106 176 221 120 249 560 700 908 1268 1560 1608 1564 1829 1943 1223 1366 1360 1448 1510 1626 1655 1728 1667 1565 1476 2130 2889 2784 2632 2605 2607 2562 2504 2541 2516 2306 1976 1808 1753 1638 1503 1420 1729 1758 1711 1699 1622 1544 1488 1460 1838 2177 2279 2440 2488 2468 2434 2407
134 76 40 0 0 0 94 79 110 310 476 675 815 1139 1405 1533 1623 1893 2073 1994 1290 1337 1389 1512 1509 1515 1601 1502 1440 1631 2206 2921 2932 2743 2685 2679 2654 2595 2580 2591 2496 2238 1914 1814 1709 1585 1474 1715 1790 1806 1824 1855 1839 1758 1593 1455 1965 1864 2148 2379 2430 2427 2402
31 51 86 0 0 0 0 87 100 371 521 626 796 1137 1533 1768 1854 1921 1912 2010 2080 1664 1035 1502 1497 1578 1549 1558 1575 1830 2509 3071 3080 2919 2808 2762 2758 2720 2702 2664 2634 2446 2132 1922 1803 1706 1706 1745 1892 1929 1965 2051 2123 2076 1978 1765 1751 1833 1925 2051 2237 2362 2398
25 0 0 0 0 0 0 0 0 248 617 759 858 1120 1526 1894 2044 2074 2019 2146 2086 2200 1993 1328 1272 1576 1589 1658 1698 1926 2659 3236 3215 3069 2955 2909 2911 2890 2821 2804 2768 2623 2365 2100 1896 1786 1863 1964 2045 2115 2190 2264 2316 2262 2275 2174 1979 1911 1999 1993 2020 2134 2269
27 36 46 21 7 0 0 0 186 450 671 855 913 1021 1425 1764 2011 2165 2212 2436 2688 2754 2283 1847 1172 1325 1705 1637 1912 2532 2854 3284 3342 3249 3188 3128 3145 3056 2965 2967 2944 2813 2601 2331 2048 1857 1864 2130 2294 2331 2471 2603 2554 2462 2438 2454 2305 2116 2122 2113 2057 2042 2084
6 8 8 0 0 0 0 0 354 758 944 992 972 1279 1668 2136 2746 3428 3713 3728 3975 3810 3275 2392 1496 856 1278 1678 1677 2296 3253 3540 3533 3406 3366 3373 3364 3265 3158 3205 3190 3068 2857 2558 2256 2010 1897 2009 2375 2499 2583 2802 2840 2761 2590 2642 2686 2473 2323 2271 2205 2071 2031
0 29 23 0 0 0 0 32 254 511 808 928 929 1273 1732 2795 3617 3945 4298 4718 4844 4443 3547 2773 1769 1014 1009 1680 2635 2506 2855 3588 3706 3604 3528 3574 3608 3520 3408 3428 3468 3406 3198 2862 2490 2214 2008 1967 2208 2504 2604 2771 2986 3027 2911 2763 2892 2817 2695 2589 2472 2404 2279
0 0 0 0 0 0 0 165 311 512 737 864 863 1158 1734 2420 3143 3616 4092 4562 4714 4683 4311 3213 1993 1487 1382 1278 2223 3166 3470 3780 3840 3804 3705 3773 3857 3755 3636 3612 3666 3595 3515 3206 2834 2491 2238 2141 2146 2340 2522 2662 2921 3096 3115 3044 3056 3051 2925 2921 2817 2723 2646
0 0 0 0 0 0 115 237 374 509 685 801 728 975 1571 1964 2488 3026 3767 4142 4404 4612 4484 3407 2131 1864 2379 2199 2245 2888 3583 3932 3957 3947 3845 3850 4021 4014 3882 3780 3805 3714 3637 3545 3258 2874 2584 2388 2319 2288 2335 2470 2648 2969 3140 3161 3122 3314 3081 3011 3042 3024 2975
0 0 0 0 0 0 250 357 438 505 562 559 575 720 1232 1816 2505 3274 3706 4006 4046 4387 4655 3605 2115 2066 2514 3068 3045 3120 3622 3894 3930 3974 3932 3880 3975 4151 4162 3977 3911 3827 3727 3731 3600 3296 2973 2710 2541 2430 2364 2343 2429 2653 2986 3122 3173 3428 3283 3157 3128 3170 3206
0 0 0 0 84 267 412 467 515 547 613 669 638 980 1397 1831 2538 3068 3311 3433 3976 4258 4469 3638 2725 2384 2629 2940 3229 3377 3634 3860 3858 3921 3936 3882 3852 4059 4284 4307 4223 3928 3882 3834 3825 3613 3357 3088 2822 2656 2543 2423 2368 2435 2621 2862 3004 3272 3429 3270 3195 3172 3182
0 0 0 44 209 260 373 472 558 622 682 736 779 1058 1389 1646 1977 2327 2830 3371 3952 4189 4544 3787 3330 2950 3010 3194 3302 3443 3622 3836 3828 3851 3884 3861 3868 3946 4221 4302 4285 4211 4049 3927 3959 3955 3664 3344 3098 2872 2692 2563 2458 2383 2412 2581 2762 2938 3407 3473 3333 3229 3174
0 0 1 200 242 310 402 462 511 535 602 776 883 1003 1178 1356 1676 2131 2581 3243 3724 3856 4619 4390 3490 3276 3369 3455 3422 3435 3610 3840 3848 3812 3808 3846 3922 4004 4133 4208 4284 4331 4201 4051 3993 4067 3966 3704 3355 3051 2850 2754 2690 2535 2420 2435 2530 2756 3166 3463 3507 3430 3334
0 0 2 194 258 357 474 543 565 594 615 674 748 923 1184 1460 1648 1790 2292 3033 3463 3534 4256 4619 4003 3351 3511 3568 3457 3400 3509 3811 3900 3854 3846 3889 3986 4044 4021 4070 4216 4263 4276 4190 4111 4076 4033 3873 3552 3269 3121 3063 2927 2950 2804 2699 2746 2900 3027 3341 3531 3520 3426
Wind_Speed
16 15 16 16 16 13 12 11 11 11 12 10 8 9 12 10 8 9 9 8 9 10 10 11 11 12 10 11 10 9 8 6 5 5 5 4 4 nan 4 nan 5 4 4 4 3 2 2 1 2 1 1 2 4 3 5 5 6 7 7 5 5 6 10
16 14 14 16 16 15 14 12 11 11 11 10 8 10 11 12 9 8 8 8 8 9 9 10 11 11 11 12 12 10 8 6 5 5 6 7 6 nan 4 4 5 5 5 4 4 4 4 2 1 1 1 2 3 3 3 5 5 5 5 5 6 7 8
18 16 15 13 14 16 16 14 12 12 12 11 10 10 11 11 10 9 10 10 9 9 10 9 10 11 12 13 13 10 8 7 6 4 nan 5 5 4 5 5 5 6 5 5 5 5 6 5 4 2 1 2 3 4 3 4 5 4 5 5 6 7 8
17 19 19 18 16 15 17 15 14 13 13 12 10 10 10 11 10 9 11 12 11 11 9 9 11 12 14 14 13 12 9 7 5 4 nan nan nan 6 6 6 6 7 7 7 6 5 6 6 5 5 2 2 3 4 3 4 4 4 4 4 6 6 8
21 22 24 21 16 14 14 13 13 13 12 12 12 10 9 8 10 9 11 13 13 11 10 11 14 16 16 14 15 13 10 8 7 6 nan nan nan nan 6 5 5 5 6 8 8 6 6 6 5 6 4 3 3 3 4 2 3 3 3 3 4 6 8
27 23 21 17 13 12 11 12 13 14 13 13 13 11 9 9 9 12 12 14 14 13 15 16 14 15 13 13 14 13 12 10 9 7 nan nan nan nan 5 5 6 5 6 6 9 9 7 7 6 5 6 3 3 3 3 3 2 2 3 2 3 5 7
26 18 15 13 13 15 13 11 13 14 14 12 12 12 10 9 10 11 11 13 14 16 17 16 14 13 12 14 13 13 11 10 10 8 nan nan nan nan nan nan 5 6 6 8 7 8 10 9 7 5 5 5 4 3 3 3 2 2 2 2 3 5 6
25 18 16 18 18 18 14 11 11 14 13 13 13 13 11 9 9 9 9 10 11 12 13 16 16 14 12 13 13 11 11 10 11 10 9 nan nan nan nan nan nan 6 7 7 7 7 7 10 9 8 6 5 5 5 4 3 3 3 2 3 3 4 5
22 20 21 22 22 20 17 13 12 14 14 12 12 12 11 10 10 10 10 11 10 9 9 12 14 15 15 13 13 11 12 12 12 11 9 nan nan nan nan nan nan 5 6 6 9 9 8 nan 10 9 7 6 5 5 6 4 4 4 4 3 4 5 5
18 19 21 21 19 20 19 18 17 16 14 13 13 13 11 11 11 10 9 10 10 11 10 9 11 15 16 13 11 12 14 13 12 10 9 7 6 5 6 nan nan 6 5 6 8 9 10 10 10 12 10 8 7 6 6 6 6 6 5 5 6 6 6
16 16 16 15 17 18 20 20 19 17 15 14 15 14 12 13 12 10 7 7 9 10 11 10 10 12 15 15 13 13 13 11 11 9 8 7 7 6 7 8 8 7 6 7 7 9 10 11 11 12 12 10 10 9 7 7 7 8 7 5 6 7 8
19 14 13 14 12 14 16 18 18 17 16 15 16 16 15 14 13 11 8 8 9 10 9 10 11 12 14 17 16 13 11 11 10 7 6 7 8 7 9 10 9 9 7 7 8 9 10 11 12 12 12 12 11 10 9 8 8 9 9 8 7 7 8
16 16 17 14 13 9 12 17 17 17 17 15 14 16 16 15 14 13 10 9 9 8 7 7 9 12 12 15 16 14 11 10 8 7 7 7 8 10 10 10 11 10 9 8 8 9 11 12 13 13 14 13 13 12 11 10 9 10 10 10 9 9 9
15 17 19 16 13 13 12 14 15 17 18 16 16 17 16 16 16 15 13 10 10 9 7 5 6 10 11 12 13 13 11 9 8 8 7 8 9 10 10 11 11 12 12 11 9 9 10 12 14 15 15 14 13 13 13 11 10 11 11 11 11 12 10
44 33 37 38 33 28 26 20 17 16 17 18 18 19 18 17 17 18 16 14 12 9 6 5 5 7 9 10 10 11 12 12 10 9 8 7 8 9 10 10 11 13 14 13 11 10 10 12 15 16 16 15 15 14 13 12 11 11 11 11 11 13 13
45 43 49 51 48 45 44 44 41 33 22 20 20 20 21 21 20 19 17 15 14 11 9 8 5 6 7 9 9 10 13 13 11 9 7 5 5 6 8 10 11 12 14 14 13 12 12 13 15 16 17 17 16 15 13 12 11 11 14 13 12 12 12
52 49 52 56 53 51 46 42 40 41 43 39 29 23 23 23 22 22 21 19 18 15 13 11 7 6 5 6 8 9 11 13 11 9 6 3 3 4 5 8 10 11 13 14 14 14 14 14 15 16 17 18 17 16 14 13 12 14 14 14 13 12 12
53 47 44 48 54 54 50 47 47 46 39 37 45 47 42 38 30 29 24 23 21 19 17 15 11 8 6 8 11 9 8 10 10 8 6 4 2 2 3 6 8 9 11 13 14 16 17 15 14 17 18 18 18 17 15 14 14 17 17 15 14 13 12
55 52 50 52 54 52 48 43 43 48 48 45 44 43 41 44 42 29 26 26 27 26 22 18 16 15 13 12 13 10 7 8 8 7 6 4 2 2 2 3 6 8 9 11 14 16 16 15 15 17 18 19 18 17 16 15 16 19 19 17 16 15 13
59 nan 57 54 53 51 50 48 44 44 49 48 44 45 44 38 35 43 49 45 44 40 37 36 36 36 35 35 30 17 8 6 5 5 5 6 5 4 2 1 3 6 7 9 12 14 14 15 15 16 19 19 20 19 18 16 18 20 20 19 18 16 14
60 58 59 58 54 nan nan nan 43 41 37 32 34 34 35 34 37 47 44 37 33 30 28 26 24 22 21 23 21 23 15 4 3 3 5 6 6 5 3 1 1 3 6 8 9 11 12 13 14 15 17 20 20 21 19 18 21 22 21 21 20 19 16
62 61 62 nan 54 55 52 nan nan 45 45 40 30 25 25 25 29 40 33 23 24 24 24 21 18 16 17 13 8 6 3 2 2 2 3 4 4 4 2 2 2 4 7 8 8 9 11 12 13 14 15 18 20 20 20 20 24 23 23 22 21 22 17
61 nan nan 58 nan nan 55 53 nan 48 nan 38 34 30 21 21 23 26 27 19 16 17 17 16 13 14 15 11 8 10 9 6 4 3 3 2 1 0 1 2 4 6 9 9 9 11 11 12 13 14 14 15 18 18 18 20 23 24 23 23 23 23 19
nan 60 nan 60 59 59 nan nan nan nan nan 38 34 31 29 30 32 32 30 23 18 16 13 9 9 15 17 14 14 7 10 10 8 6 5 3 1 2 1 2 5 6 9 9 10 11 12 14 14 14 14 14 14 16 19 18 21 23 24 24 25 26 21
nan nan nan nan nan 59 59 56 52 47 44 41 39 38 36 33 32 33 31 28 22 18 12 6 7 13 12 8 7 7 9 12 10 8 7 4 1 1 1 3 4 7 9 9 11 13 15 16 16 15 15 14 13 13 15 17 20 21 23 25 26 24 21
63 nan nan nan nan nan nan nan 54 53 50 44 40 39 36 34 30 28 25 24 22 16 9 4 3 6 7 9 12 12 11 13 12 10 8 5 5 5 4 6 8 8 8 9 11 14 16 17 16 16 15 15 14 14 14 13 18 19 20 22 24 25 22
nan nan nan nan nan nan nan nan 52 52 49 44 40 37 36 33 28 25 24 21 19 15 11 7 7 8 10 11 10 9 11 13 13 11 9 9 10 10 10 10 9 10 10 10 11 13 15 16 17 16 16 16 15 15 15 14 15 18 20 22 23 22 22
nan nan nan nan nan nan nan nan nan 53 51 49 45 41 39 38 35 31 29 25 20 17 16 17 13 10 11 12 11 10 11 13 13 12 13 14 15 14 11 11 11 11 11 12 13 12 13 15 17 17 18 17 17 16 16 16 15 20 18 22 22 23 21
nan nan nan nan nan nan nan nan 54 51 50 48 46 45 43 42 40 37 33 29 24 20 19 18 20 17 14 13 12 11 11 13 13 14 16 17 16 15 14 15 13 12 13 14 14 13 13 14 16 17 18 19 18 17 17 18 16 22 20 19 21 21 19
nan nan nan nan nan nan nan nan 51 50 47 45 43 41 40 39 37 35 33 28 26 24 21 19 19 20 18 15 12 12 14 14 13 14 16 17 19 18 18 18 16 15 15 15 16 15 14 14 15 16 18 18 19 18 17 17 17 19 22 21 20 20 19
nan nan nan nan nan nan nan nan 53 48 44 43 42 42 41 40 38 36 33 31 28 25 24 21 20 19 18 16 14 11 12 15 16 15 16 18 20 20 20 19 20 17 16 17 17 16 14 14 15 16 17 18 18 18 18 18 17 18 20 24 21 19 17
nan nan nan nan nan nan nan 56 51 47 43 41 41 40 39 39 38 36 34 34 33 30 26 23 21 19 16 14 15 15 15 16 17 17 17 18 20 19 20 21 21 19 19 18 18 16 15 14 15 15 16 17 18 19 19 19 19 19 21 21 22 18 15
nan nan nan nan nan nan 58 55 50 47 44 41 40 40 39 39 39 37 35 34 36 35 28 25 24 22 21 18 17 18 17 18 19 19 19 19 20 21 22 23 24 22 21 19 17 16 15 15 15 15 16 16 18 20 21 21 19 20 22 24 23 20 17
nan nan nan nan nan nan 56 54 49 46 45 44 43 40 38 38 38 38 37 37 39 38 29 27 26 24 23 21 22 22 20 19 19 21 22 22 22 23 24 24 24 22 19 17 17 16 15 15 15 15 16 17 20 22 22 21 19 20 22 22 23 21 22
nan nan nan nan nan 62 56 52 49 48 49 48 47 44 39 37 37 38 38 40 41 42 31 28 26 24 23 23 25 25 24 23 24 23 25 25 26 25 26 24 23 23 20 18 18 17 16 16 16 16 18 20 21 21 20 19 18 17 21 22 23 24 23
nan nan nan nan 63 62 58 53 50 51 51 50 50 49 45 41 39 38 38 41 41 42 36 28 28 26 25 26 27 28 29 28 28 27 29 29 29 33 37 43 43 34 23 18 16 14 14 18 17 18 21 21 20 20 19 18 16 21 25 23 24 23 23
nan nan nan 69 67 70 66 59 54 53 53 53 52 51 48 45 40 38 39 41 41 41 40 33 29 28 28 28 29 30 32 32 32 32 33 33 34 37 37 37 37 41 39 35 25 18 18 17 16 17 18 20 21 18 13 14 23 28 25 25 25 23 21
nan nan nan 72 71 70 69 64 61 58 55 52 50 50 49 46 44 44 43 42 41 40 39 40 38 32 31 31 33 33 35 37 37 38 39 39 40 40 37 35 33 31 39 41 39 34 26 25 24 21 18 17 20 25 24 23 23 24 26 24 24 22 21
Wind_Direction
306 287 277 274 277 280 285 293 289 301 309 305 315 315 319 313 291 274 266 266 266 260 248 241 244 237 243 236 234 234 235 225 210 221 223 219 198 nan 192 nan 190 197 217 221 205 227 203 178 183 176 117 71 70 72 40 27 23 32 49 61 66 64 65
307 293 280 279 282 283 288 290 286 285 297 303 308 324 322 329 302 282 274 272 268 261 255 244 242 239 244 241 235 239 242 234 219 213 219 220 209 nan 197 193 185 179 189 190 196 194 209 196 188 197 23 49 46 49 28 21 15 31 47 71 79 86 93
307 304 293 287 281 282 288 287 290 288 298 297 310 329 338 338 323 302 280 274 268 253 240 237 236 238 239 240 239 242 248 242 223 220 nan 235 231 236 209 205 181 177 171 185 194 190 188 189 204 212 278 354 9 17 14 11 19 31 59 80 86 77 85
308 319 315 300 287 282 281 287 298 288 288 306 312 332 340 338 327 304 292 288 281 262 257 240 229 227 228 234 237 238 244 250 248 230 nan nan nan 236 231 213 195 176 177 179 190 197 186 186 197 214 273 299 340 2 358 4 15 35 64 75 75 75 71
291 306 308 296 292 286 275 277 293 298 294 289 297 313 330 323 329 313 301 301 298 288 266 250 228 221 218 223 224 228 238 250 249 237 nan nan nan nan 245 249 224 194 175 182 193 200 199 201 196 217 233 276 321 335 350 345 357 26 66 73 62 66 67
277 292 304 306 310 313 299 285 298 303 293 291 290 302 317 327 331 339 325 317 314 296 269 254 242 230 224 223 221 223 226 230 239 244 nan nan nan nan 252 254 255 231 205 185 196 204 212 213 211 222 237 255 298 323 326 327 338 0 39 65 55 59 60
277 286 297 299 319 329 314 289 288 291 286 278 278 285 303 319 332 340 336 334 327 316 305 294 279 259 237 228 224 225 228 230 235 246 nan nan nan nan nan nan 252 252 234 220 206 210 218 219 221 236 248 256 265 293 304 314 308 333 352 28 48 58 55
282 284 279 282 297 307 304 291 292 292 283 265 270 282 299 309 310 324 336 329 328 328 320 310 295 281 262 242 235 234 231 230 229 235 236 nan nan nan nan nan nan 248 245 246 240 239 232 234 231 237 260 262 261 261 286 297 297 295 315 355 14 41 53
286 284 275 276 282 287 284 276 282 293 292 273 271 280 293 301 315 321 324 318 322 336 337 320 306 289 269 251 240 237 232 231 230 235 242 nan nan nan nan nan nan 248 253 255 252 251 258 nan 254 256 268 277 277 269 267 287 302 294 310 346 355 10 31
270 260 261 269 271 269 272 267 270 274 282 281 264 261 287 299 307 315 321 323 329 347 342 326 307 291 279 265 249 242 237 235 231 242 247 252 246 267 274 nan nan 265 258 259 255 257 258 270 273 268 281 290 295 297 282 282 296 307 317 338 345 350 3
266 259 257 262 255 263 265 269 272 267 273 282 273 261 265 277 287 294 300 301 315 332 335 327 315 301 286 272 258 240 237 239 239 242 253 259 248 265 269 270 273 270 277 268 263 263 261 263 274 276 281 291 295 298 300 295 299 307 318 321 331 337 339
279 264 266 269 268 260 274 275 271 263 266 271 272 268 260 263 273 280 275 279 289 304 318 329 319 312 292 278 267 250 241 237 238 244 256 259 254 260 261 261 265 269 272 277 280 275 275 273 271 278 281 283 288 292 299 294 290 299 311 319 320 324 328
288 262 246 264 259 251 247 253 269 270 269 267 265 264 259 256 265 265 262 272 278 284 304 319 323 317 303 286 278 263 253 242 238 239 242 245 245 244 248 255 261 269 272 273 279 284 283 283 281 276 283 285 283 287 290 294 291 292 301 310 310 315 320
300 276 259 265 259 251 245 248 261 265 266 263 255 256 254 250 254 256 253 259 259 264 275 281 320 315 311 298 282 269 263 247 239 235 239 240 240 241 248 252 257 263 264 267 278 284 288 287 288 281 282 288 289 289 287 292 295 294 299 305 305 304 312
218 216 223 225 219 214 209 215 231 248 256 261 257 251 249 243 243 241 240 242 243 244 251 264 291 305 315 313 295 275 260 244 233 227 231 244 247 246 248 254 255 257 259 263 269 266 280 280 287 287 287 287 289 291 290 292 296 291 294 299 302 298 303
213 209 212 218 221 220 218 211 207 202 210 237 247 244 243 239 239 242 242 241 245 240 237 247 270 285 305 321 311 278 260 248 235 229 231 242 259 262 259 255 256 258 261 265 267 264 264 268 277 289 291 290 290 289 288 288 283 294 315 307 294 293 292
211 215 210 211 213 216 216 212 209 213 210 204 212 228 231 230 232 234 231 233 235 235 231 235 239 251 267 291 289 279 262 247 238 230 226 236 260 273 276 268 259 259 262 264 265 264 259 260 266 280 286 290 289 292 289 287 285 310 308 312 314 293 284
208 210 220 224 216 212 210 204 203 201 207 215 217 214 211 211 219 220 221 225 230 232 228 224 225 229 232 242 249 261 262 246 237 226 215 215 239 287 293 279 276 274 269 268 271 263 259 261 259 263 277 283 289 292 291 287 298 309 311 312 314 305 287
213 218 219 217 217 215 208 201 205 201 198 205 214 221 221 215 211 219 220 218 223 230 229 220 216 213 210 218 229 235 240 237 229 216 206 200 207 229 259 293 297 296 286 285 277 270 271 268 265 257 266 279 286 289 291 287 301 306 311 312 313 315 304
213 nan 220 215 214 215 207 202 207 211 203 203 206 206 206 214 225 222 218 219 225 229 230 228 220 212 207 203 196 192 208 215 221 203 196 201 206 213 224 300 323 311 299 287 282 285 281 276 273 264 259 270 278 280 281 286 295 306 309 311 314 314 302
205 213 217 214 213 nan nan nan 199 204 220 220 208 207 203 192 211 229 227 219 222 231 240 249 255 250 245 236 213 178 164 192 198 199 201 208 212 212 212 275 273 294 288 285 291 292 288 282 276 269 261 260 270 272 275 277 296 303 308 311 314 315 303
199 205 210 nan 213 215 211 nan nan 207 204 213 216 220 202 202 214 241 239 222 228 235 246 253 255 251 249 256 274 287 202 177 229 229 220 218 223 222 230 251 265 272 264 264 267 271 276 276 276 274 270 260 263 270 272 273 293 301 304 309 311 312 292
199 nan nan 206 nan nan 209 208 nan 207 nan 209 208 209 217 198 215 230 241 230 233 247 254 261 261 259 255 236 240 275 291 303 302 289 272 249 243 290 294 269 258 249 246 254 261 263 272 279 276 270 271 269 259 265 267 266 285 298 302 303 308 295 285
nan 198 nan 201 204 207 nan nan nan nan nan 209 209 207 207 205 210 224 236 250 247 240 242 256 277 276 260 221 195 225 282 292 297 300 292 276 38 48 334 264 248 255 250 253 259 261 264 265 266 266 271 274 273 266 263 265 276 299 299 302 301 296 289
nan nan nan nan nan 203 206 207 207 207 209 212 212 209 205 204 209 213 222 240 250 246 238 247 281 288 279 234 208 228 243 258 273 283 285 291 313 220 251 270 270 260 253 248 249 253 254 258 261 263 264 270 274 283 276 261 268 296 303 306 303 298 284
206 nan nan nan nan nan nan nan 207 210 211 209 205 203 202 200 205 210 212 222 235 241 245 239 251 278 271 236 222 221 226 241 259 265 270 280 263 242 237 237 244 258 262 254 249 250 254 259 263 269 264 264 269 267 273 272 261 278 302 301 303 307 288
nan nan nan nan nan nan nan nan 208 208 208 208 204 201 200 199 200 203 216 218 215 214 209 200 206 228 233 233 231 220 219 238 255 265 263 259 255 251 243 241 250 257 262 265 258 254 254 263 265 268 266 265 264 265 268 270 268 271 298 299 302 307 297
nan nan nan nan nan nan nan nan nan 203 204 205 204 203 205 207 207 209 213 217 206 194 192 194 209 227 232 233 230 224 223 232 241 250 250 250 251 255 256 252 254 253 259 259 262 266 262 259 263 268 268 266 266 264 265 272 289 268 289 300 304 306 311
nan nan nan nan nan nan nan nan 204 203 202 203 203 205 207 207 204 201 202 202 200 193 194 205 209 220 236 242 241 235 236 238 245 243 240 245 255 261 261 256 256 253 254 259 262 266 267 263 263 267 268 267 265 262 263 265 273 289 282 296 302 305 308
nan nan nan nan nan nan nan nan 206 203 202 203 203 205 207 210 209 205 202 197 196 199 201 210 219 221 223 229 242 245 244 248 252 248 241 247 250 252 256 258 257 253 250 255 258 260 265 262 261 266 269 271 267 264 261 259 263 279 295 291 303 299 308
nan nan nan nan nan nan nan nan 200 201 200 201 201 204 207 211 211 206 199 196 197 202 210 218 225 226 223 226 234 246 250 255 256 254 248 245 250 252 254 258 259 255 252 254 256 258 261 263 264 267 268 267 267 264 260 257 259 264 282 297 297 301 303
nan nan nan nan nan nan nan 200 199 198 197 198 201 203 207 210 213 207 200 195 193 197 214 228 232 231 229 230 235 240 250 259 259 259 257 253 249 251 251 256 258 256 250 250 253 256 259 261 265 266 267 265 263 260 258 257 256 261 266 272 282 284 298
nan nan nan nan nan nan 201 200 199 197 196 197 203 207 207 207 212 211 204 198 196 195 211 229 238 239 236 238 240 244 249 258 254 255 257 256 250 248 249 252 254 254 250 251 255 260 260 260 262 265 265 263 257 254 253 254 256 258 260 263 263 259 259
nan nan nan nan nan nan 198 201 203 206 207 207 208 210 207 208 212 212 207 203 203 199 215 230 237 242 244 247 245 245 248 251 264 265 255 256 254 250 249 251 255 255 253 255 261 264 262 259 261 264 265 260 253 250 250 252 255 259 261 259 258 256 252
nan nan nan nan nan 199 204 208 210 213 213 211 210 210 210 209 211 213 210 207 207 204 220 233 235 240 246 248 248 250 250 248 249 251 253 254 254 252 253 255 254 251 244 245 246 250 254 256 256 260 260 257 255 256 254 253 256 256 261 263 269 266 256
nan nan nan nan 202 205 209 211 213 213 212 212 210 209 208 209 212 213 211 211 210 209 215 233 237 238 242 245 249 251 250 247 246 246 248 252 254 253 242 231 234 233 243 244 253 253 256 249 246 252 254 256 255 260 263 260 257 260 271 273 275 276 282
nan nan nan 210 208 210 213 213 212 210 210 212 209 207 207 207 210 214 214 213 212 212 212 225 237 238 238 245 246 250 251 250 249 247 246 248 251 250 252 247 238 232 229 220 220 252 258 254 251 251 255 253 252 254 259 250 249 261 271 272 274 277 278
nan nan nan 220 217 216 217 216 214 211 211 212 211 209 207 207 210 215 213 212 212 213 214 223 225 227 236 239 240 245 246 246 246 245 244 243 245 249 253 256 253 238 226 226 222 221 240 244 238 240 256 266 258 252 240 237 253 270 267 272 275 279 281